Weather Roundup
Issued by NWS Chicago, IL

Home | Current Version | Previous Version | Text Only | Print | Product List | Glossary Off
Versions: 1 2 3 4 5 6 7 8 9 10 11 12 13 14 15 16 17 18 19 20 21 22 23 24 25 26 27 28 29 30 31 32 33 34 35 36 37 38 39 40 41 42 43 44 45 46 47 48 49 50

000
NZUS59 KLOT 052006
HRRLOT

CHICAGO AREA WEATHER ROUNDUP
NATIONAL WEATHER SERVICE CHICAGO/ROMEOVILLE IL
300 PM CDT SUN JUL 05 2015

NOTE: "FAIR" INDICATES FEW OR NO CLOUDS BELOW 12,000 FEET WITH NO
SIGNIFICANT WEATHER AND/OR OBSTRUCTIONS TO VISIBILITY.

* THESE STATIONS ARE NOT UNDER NWS QUALITY CONTROL. THEY ALSO MAY NOT
  REPORT WEATHER SUCH AS PRECIPITATION OR FOG.

ILZ005-006-012>014-019>023-052100-
NORTHEAST ILLINOIS

CITY           SKY/WX    TMP DP  RH WIND       PRES   REMARKS
OHARE          MOSUNNY   82  60  47 S7        30.04F HX  82
MIDWAY         MOSUNNY   84  59  42 VRB6      30.04F HX  84
AURORA         MOSUNNY   82  62  50 S8        30.05F HX  83
WAUKEGAN       SUNNY     77  62  59 E9        30.05F
DUPAGE AIRPORT SUNNY     82  61  48 S10       30.04F HX  83
WHEELING       SUNNY     83  59  44 VRB5      30.05F HX  83
NORTHERLY IS     N/A     73  63  70 E9          N/A
$$

WIZ051-052-058>065-066-070>072-052100-
SOUTHEAST WISCONSIN

CITY           SKY/WX    TMP DP  RH WIND       PRES   REMARKS
MILWAUKEE      MOSUNNY   79  61  53 SE17      30.04F HX  80
KENOSHA*       SUNNY     80  61  52 SE13      30.05F HX  81
RACINE*        SUNNY     77  58  51 S14       30.07F
WAUKESHA       MOSUNNY   79  59  50 S13       30.06S HX  80
$$

INZ001>003-010>013-019-020-052100-
NORTHWEST INDIANA

CITY           SKY/WX    TMP DP  RH WIND       PRES   REMARKS
GARY*          MOSUNNY  N/A N/A N/A S7        30.06F
MICHIGAN CITY* NOT AVBL
RENSSELAER*    NOT AVBL
$$

LMZ740>746-052100-
SOUTHERN LAKE MICHIGAN

STATION/POSITION TIME  SKY/WX   TEMP WIND        PRES    VSBY
                                AIR  DIR/SP/G
                 (UTC)          (F)  (DEG/KT/KT) (MB)    (MI)
HARRISON CRIB    1900            71   90/ 13/ 14   N/A
BURNHAM HARBOR   2000            73   90/  8/ 11   N/A
CALUMET HARBOR   1900            75   60/  9/ 11   N/A
BURNS HARBOR     1900            73   60/  9/ 10 1019.0F
MICHIGAN CITY    1900            70   30/  7/  7   N/A
$$

ABBREVIATIONS USED IN REMARKS
   TC - TEMPERATURE IN CELSIUS
  WCI - WIND CHILL INDEX
   HX - HEAT INDEX
  VSB - VISIBILITY
$$



USA.gov is the U.S. government's official web portal to all federal, state and local government web resources and services.